| time (UTC) | temp F | wind direction | speed MPH | gust MPH | rain 1hr in | rain 24hr in | rain mn in | humidity % | barometer mb |
| 20260902095600 | -31 | 315 | 5.0 | 7.0 | 0.00 | 0.00 | 0.00 | 25 | 5318.5 |
| 20260902094955 | -26 | 315 | 5.0 | 7.0 | 0.00 | 0.00 | 0.00 | 27 | 5318.5 |
| 20260902094753 | -16 | 315 | 4.0 | 7.0 | 0.00 | 0.00 | 0.00 | 26 | 5318.5 |
| 20260902094551 | -20 | 315 | 7.0 | 7.0 | 0.00 | 0.00 | 0.00 | 27 | 5318.5 |
| 20260902093950 | 715 | 315 | 4.0 | 7.0 | 0.00 | 0.00 | 0.00 | 27 | 1799.4 |
| 20260902093742 | -95 | 270 | 5.0 | 6.0 | 0.00 | 0.00 | 0.00 | 27 | 5318.5 |
| 20260902093541 | -14 | 270 | 6.0 | 6.0 | 0.00 | 0.00 | 0.00 | 26 | 5318.5 |
| 20260902093138 | 538 | 315 | 6.0 | 9.0 | 0.00 | 0.00 | 0.00 | 26 | 5318.5 |
| 20260902092937 | 147 | 315 | 6.0 | 7.0 | 0.00 | 0.00 | 0.00 | 26 | 567.2 |
| 20260902092733 | -31 | 315 | 4.0 | 6.0 | 0.00 | 0.00 | 0.00 | 27 | 5318.5 |
| 20260902092532 | 203 | 315 | 4.0 | 5.0 | 0.00 | 0.00 | 0.00 | 28 | 5318.5 |
| 20260902092329 | 164 | 315 | 5.0 | 5.0 | 0.00 | 0.00 | 0.00 | 27 | 5318.5 |
| 20260902091925 | 219 | 315 | 3.0 | 6.0 | 0.00 | 0.00 | 0.00 | 27 | 5318.5 |
| 20260902091721 | 715 | 315 | 4.0 | 6.0 | 0.00 | 0.00 | 0.00 | 27 | 1799.4 |
| 20260902091318 | 32 | 281 | 5.0 | 5.0 | 0.00 | 0.00 | 0.00 | 27 | 5320.2 |
| 20260902091118 | -32 | 315 | 3.0 | 4.0 | 0.00 | 0.00 | 0.00 | 27 | 5318.5 |
| 20260902090711 | -27 | 315 | 3.0 | 5.0 | 0.00 | 0.00 | 0.00 | 28 | 1714.1 |
| 20260902090511 | -17 | 292 | 3.0 | 5.0 | 0.00 | 0.00 | 0.00 | 29 | 5318.5 |
| 20260902090308 | 715 | 270 | 5.0 | 5.0 | 0.00 | 0.00 | 0.00 | 29 | 4420.6 |
| 20260902085903 | -15 | 315 | 2.0 | 3.0 | 0.00 | 0.00 | 0.00 | 29 | 5318.5 |
| 20260902085700 | -65 | 315 | 2.0 | 3.0 | 0.00 | 0.00 | 0.00 | 28 | 5318.5 |
| 20260902084853 | 446 | 303 | 4.0 | 4.0 | 0.00 | 0.00 | 0.00 | 29 | 5318.5 |
| 20260902084652 | 715 | 315 | 3.0 | 5.0 | 0.00 | 0.00 | 0.00 | 29 | 1799.1 |
| 20260902084052 | 155 | 270 | 3.0 | 4.0 | 0.00 | 0.00 | 0.00 | 29 | 5318.5 |
| 20260902083641 | 210 | 315 | 4.0 | 5.0 | 0.00 | 0.00 | 0.00 | 29 | 5318.5 |
| 20260902083438 | 714 | 315 | 4.0 | 5.0 | 0.00 | 0.00 | 0.00 | 29 | 4421.0 |
| 20260902082631 | -24 | 315 | 5.0 | 5.0 | 0.00 | 0.00 | 0.00 | 29 | 5318.5 |
| 20260902082427 | -27 | 315 | 4.0 | 6.0 | 0.00 | 0.00 | 0.00 | 31 | 5318.5 |
| 20260902082226 | 715 | 315 | 3.0 | 6.0 | 0.00 | 0.00 | 0.00 | 30 | 1799.3 |
| 20260902082023 | 715 | 315 | 4.0 | 5.0 | 0.00 | 0.00 | 0.00 | 30 | 4420.8 |
| 20260902081822 | -13 | 315 | 5.0 | 5.0 | 0.00 | 0.00 | 0.00 | 30 | 5318.5 |
| 20260902081215 | -11 | 270 | 7.0 | 7.0 | 0.00 | 0.00 | 0.00 | 30 | 5318.5 |
| 20260902081013 | -19 | 270 | 7.0 | 7.0 | 0.00 | 0.00 | 0.00 | 30 | 5318.5 |
| 20260902080811 | 743 | 315 | 6.0 | 7.0 | 0.00 | 0.00 | 0.00 | 31 | 5318.5 |
| 20260902080407 | -31 | 315 | 4.0 | 6.0 | 0.00 | 0.00 | 0.00 | 31 | 5318.5 |
| 20260902080206 | 906 | 315 | 5.0 | 6.0 | 0.00 | 0.00 | 0.00 | 32 | 5318.5 |
| 20260902075356 | 201 | 315 | 3.0 | 3.0 | 0.00 | 0.00 | 0.00 | 34 | 5318.5 |
| 20260902074748 | 715 | 292 | 1.0 | 3.0 | 0.00 | 0.00 | 0.00 | 35 | 4420.8 |
| 20260902074141 | -30 | 292 | 0.0 | 3.0 | 0.00 | 0.00 | 0.00 | 36 | 5318.5 |
| 20260902073536 | -15 | 315 | 3.0 | 3.0 | 0.00 | 0.00 | 0.00 | 36 | 5318.5 |
| 20260902073334 | -19 | 292 | 0.0 | 4.0 | 0.00 | 0.00 | 0.00 | 37 | 5318.5 |
| 20260902072928 | -13 | 315 | 2.0 | 5.0 | 0.00 | 0.00 | 0.00 | 38 | 5318.5 |
| 20260902072322 | -31 | 315 | 2.0 | 5.0 | 0.00 | 0.00 | 0.00 | 39 | 5318.5 |
| 20260902071918 | 676 | 315 | 2.0 | 4.0 | 0.00 | 0.00 | 0.00 | 40 | 5318.5 |
| 20260902071515 | 122 | 225 | 1.0 | 2.0 | 0.00 | 0.00 | 0.00 | 41 | 5318.5 |
| 20260902071312 | 216 | 337 | 1.0 | 2.0 | 0.00 | 0.00 | 0.00 | 42 | 5318.5 |
| 20260902070908 | 272 | 337 | 0.0 | 3.0 | 0.00 | 0.00 | 0.00 | 42 | 1714.1 |
| 20260902070706 | 715 | 337 | 1.0 | 5.0 | 0.00 | 0.00 | 0.00 | 42 | 1799.4 |
| 20260902070504 | 327 | 315 | 3.0 | 5.0 | 0.00 | 0.00 | 0.00 | 42 | 5318.5 |
| 20260902070301 | 715 | 315 | 4.0 | 6.0 | 0.00 | 0.00 | 0.00 | 42 | 1799.4 |
| 20260902065857 | -31 | 315 | 5.0 | 5.0 | 0.00 | 0.00 | 0.00 | 43 | 5318.5 |
| 20260902065656 | -21 | 315 | 2.0 | 4.0 | 0.00 | 0.00 | 0.00 | 43 | 5318.5 |
| 20260902064847 | -10 | 337 | 2.0 | 3.0 | 0.00 | 0.00 | 0.00 | 42 | 5318.5 |
| 20260902064646 | -14 | 281 | 1.0 | 3.0 | 0.00 | 0.00 | 0.00 | 42 | 5318.5 |
| 20260902064241 | -90 | 315 | 2.0 | 3.0 | 0.00 | 0.00 | 0.00 | 42 | 5318.5 |
| 20260902063403 | 288 | 337 | 3.0 | 3.0 | 0.00 | 0.00 | 0.00 | 45 | 5318.5 |
| 20260902063004 | -31 | 337 | 2.0 | 126.0 | 0.00 | 0.00 | 0.00 | 46 | 5318.5 |
| 20260902062930 | 584 | 337 | 126.0 | 126.0 | 0.00 | 0.00 | 0.00 | 45 | 5318.5 |
| 20260902062858 | 584 | 337 | 126.0 | 126.0 | 0.00 | 0.00 | 0.00 | 45 | 5318.5 |
| 20260902062717 | 288 | 337 | 1.0 | 5.0 | 0.00 | 0.00 | 0.00 | 45 | 5318.5 |
| 20260902062313 | 715 | 326 | 3.0 | 126.0 | 0.00 | 0.00 | 0.00 | 46 | 1799.3 |
| 20260902062218 | 584 | 292 | 126.0 | 126.0 | 0.00 | 0.00 | 0.00 | 46 | 5318.5 |
| 20260902062100 | 715 | 292 | 3.0 | 3.0 | 0.00 | 0.00 | 0.00 | 47 | 1799.3 |
| 20260902061653 | 715 | 292 | 2.0 | 127.0 | 0.00 | 0.00 | 0.00 | 46 | 1799.4 |
| 20260902061551 | 584 | 292 | 127.0 | 127.0 | 0.00 | 0.00 | 0.00 | 46 | 5318.5 |
| 20260902061512 | 715 | 292 | 3.0 | 5.0 | 0.00 | 0.00 | 0.00 | 47 | 1799.4 |
| 20260902061112 | 973 | 292 | 4.0 | 6.0 | 0.00 | 0.00 | 0.00 | 46 | 5318.5 |
| 20260902060845 | 715 | 292 | 4.0 | 7.0 | 0.00 | 0.00 | 0.00 | 48 | 1799.4 |
| 20260902060643 | 715 | 326 | 4.0 | 7.0 | 0.00 | 0.00 | 0.00 | 46 | 4420.6 |
| 20260902060239 | 715 | 292 | 4.0 | 126.0 | 0.00 | 0.00 | 0.00 | 48 | 1799.4 |
| 20260902055500 | 584 | 270 | 127.0 | 127.0 | 0.00 | 0.00 | 0.00 | 47 | 5318.5 |
| 20260902055130 | -27 | 292 | 6.0 | 126.0 | 0.00 | 0.00 | 0.00 | 47 | 5318.5 |
| 20260902054927 | 715 | 270 | 5.0 | 126.0 | 0.00 | 0.00 | 0.00 | 47 | 1799.4 |
| 20260902054826 | 584 | 270 | 126.0 | 126.0 | 0.00 | 0.00 | 0.00 | 47 | 5318.5 |
| 20260902054818 | -90 | 292 | 6.0 | 6.0 | 0.00 | 0.00 | 0.00 | 46 | 5318.5 |
| 20260902054611 | 32 | 281 | 4.0 | 6.0 | 0.00 | 0.00 | 0.00 | 47 | 5318.5 |
| 20260902054408 | 49 | 270 | 4.0 | 4.0 | 0.00 | 0.00 | 0.00 | 47 | 5318.5 |
| 20260902053646 | -31 | 270 | 3.0 | 128.0 | 0.00 | 0.00 | 0.00 | 47 | 5318.5 |
| 20260902053545 | 584 | 292 | 128.0 | 128.0 | 0.00 | 0.00 | 0.00 | 47 | 5318.5 |
| 20260902053032 | 584 | 270 | 128.0 | 128.0 | 0.00 | 0.00 | 0.00 | 46 | 5318.5 |
| 20260902052931 | 715 | 326 | 2.0 | 127.0 | 0.00 | 0.00 | 0.00 | 47 | 4420.8 |
| 20260902052831 | 584 | 270 | 127.0 | 127.0 | 0.00 | 0.00 | 0.00 | 47 | 5318.5 |
| 20260902051303 | 288 | 337 | 1.0 | 4.0 | 0.00 | 0.00 | 0.00 | 44 | 5318.5 |
| 20260902050903 | 715 | 292 | 3.0 | 127.0 | 0.00 | 0.00 | 0.00 | 45 | 1799.1 |
| 20260902050649 | 49 | 292 | 4.0 | 4.0 | 0.00 | 0.00 | 0.00 | 45 | 5318.5 |
| 20260902050245 | -27 | 292 | 3.0 | 125.0 | 0.00 | 0.00 | 0.00 | 44 | 5318.5 |
| 20260902050043 | -31 | 292 | 3.0 | 125.0 | 0.00 | 0.00 | 0.00 | 45 | 5318.5 |
| 20260902045942 | 584 | 292 | 125.0 | 125.0 | 0.00 | 0.00 | 0.00 | 46 | 5318.5 |
| 20260902045715 | 272 | 281 | 3.0 | 5.0 | 0.00 | 0.00 | 0.00 | 46 | 5318.5 |
| 20260902045311 | 327 | 270 | 2.0 | 5.0 | 0.00 | 0.00 | 0.00 | 47 | 1714.1 |
| 20260902045109 | 288 | 292 | 2.0 | 5.0 | 0.00 | 0.00 | 0.00 | 46 | 5318.5 |
| 20260902044907 | -27 | 270 | 1.0 | 128.0 | 0.00 | 0.00 | 0.00 | 45 | 5318.5 |
| 20260902044705 | 49 | 292 | 5.0 | 128.0 | 0.00 | 0.00 | 0.00 | 46 | 5318.5 |
| 20260902044604 | 584 | 292 | 128.0 | 128.0 | 0.00 | 0.00 | 0.00 | 46 | 5318.5 |
| 20260902044325 | 715 | 292 | 4.0 | 6.0 | 0.00 | 0.00 | 0.00 | 46 | 4420.8 |
| 20260902043813 | -77 | 292 | 5.0 | 5.0 | 0.00 | 0.00 | 0.00 | 46 | 5318.5 |
| 20260902043405 | 715 | 270 | 3.0 | 5.0 | 0.00 | 0.00 | 0.00 | 46 | 4420.6 |
| 20260902043204 | 584 | 270 | 3.0 | 3.0 | 0.00 | 0.00 | 0.00 | 46 | 5318.5 |
| 20260902043031 | 32 | 292 | 1.0 | 3.0 | 0.00 | 0.00 | 0.00 | 46 | 5320.2 |
| 20260902042828 | 147 | 270 | 2.0 | 3.0 | 0.00 | 0.00 | 0.00 | 46 | 5318.5 |
| 20260902042626 | 715 | 270 | 2.0 | 3.0 | 0.00 | 0.00 | 0.00 | 46 | 1799.4 |
| 20260902042425 | 203 | 270 | 2.0 | 3.0 | 0.00 | 0.00 | 0.00 | 46 | 5318.5 |
| 20260902042235 | -31 | 270 | 1.0 | 2.0 | 0.00 | 0.00 | 0.00 | 45 | 5318.5 |
| 20260902042023 | 258 | 270 | 1.0 | 3.0 | 0.00 | 0.00 | 0.00 | 46 | 5318.5 |
| 20260902041818 | 219 | 270 | 2.0 | 3.0 | 0.00 | 0.00 | 0.00 | 46 | 5318.5 |
| 20260902041616 | 313 | 270 | 2.0 | 3.0 | 0.00 | 0.00 | 0.00 | 45 | 5318.5 |
| 20260902041211 | 715 | 270 | 3.0 | 4.0 | 0.00 | 0.00 | 0.00 | 45 | 1799.4 |
| 20260902040808 | -23 | 270 | 3.0 | 4.0 | 0.00 | 0.00 | 0.00 | 45 | 5318.5 |
| 20260902040404 | -17 | 292 | 2.0 | 5.0 | 0.00 | 0.00 | 0.00 | 45 | 5318.5 |
| 20260902035959 | -12 | 292 | 5.0 | 5.0 | 0.00 | 0.00 | 0.00 | 45 | 5318.5 |
| 20260902035757 | 714 | 292 | 3.0 | 5.0 | 0.00 | 0.00 | 0.00 | 45 | 4420.9 |
| 20260902035557 | 715 | 292 | 4.0 | 5.0 | 0.00 | 0.00 | 0.00 | 45 | 4420.8 |
| 20260902034746 | 446 | 292 | 3.0 | 5.0 | 0.00 | 0.00 | 0.00 | 45 | 5318.5 |
| 20260902034544 | 138 | 292 | 4.0 | 5.0 | 0.00 | 0.00 | 0.00 | 45 | 5318.5 |
| 20260902034343 | 998 | 292 | 4.0 | 5.0 | 0.00 | 0.00 | 0.00 | 45 | 5318.5 |
| 20260902033941 | 155 | 281 | 4.0 | 6.0 | 0.00 | 0.00 | 0.00 | 45 | 5318.5 |
| 20260902033736 | 249 | 292 | 5.0 | 6.0 | 0.00 | 0.00 | 0.00 | 45 | 5318.5 |
| 20260902033534 | 210 | 292 | 5.0 | 6.0 | 0.00 | 0.00 | 0.00 | 44 | 5318.5 |
| 20260902033131 | 265 | 292 | 5.0 | 6.0 | 0.00 | 0.00 | 0.00 | 44 | 5318.5 |
| 20260902032928 | -29 | 292 | 5.0 | 6.0 | 0.00 | 0.00 | 0.00 | 44 | 5318.5 |
| 20260902032726 | 715 | 292 | 4.0 | 5.0 | 0.00 | 0.00 | 0.00 | 44 | 4420.9 |
| 20260902032524 | -24 | 292 | 5.0 | 5.0 | 0.00 | 0.00 | 0.00 | 44 | 5318.5 |
| 20260902032322 | -27 | 292 | 5.0 | 5.0 | 0.00 | 0.00 | 0.00 | 44 | 5318.5 |
| 20260902032121 | -18 | 292 | 4.0 | 4.0 | 0.00 | 0.00 | 0.00 | 44 | 5318.5 |
| 20260902031919 | -22 | 292 | 4.0 | 4.0 | 0.00 | 0.00 | 0.00 | 44 | 5318.5 |
| 20260902031715 | -13 | 281 | 3.0 | 4.0 | 0.00 | 0.00 | 0.00 | 44 | 5318.5 |
| 20260902031312 | -75 | 292 | 4.0 | 4.0 | 0.00 | 0.00 | 0.00 | 44 | 5318.5 |
| 20260902030907 | -19 | 337 | 4.0 | 5.0 | 0.00 | 0.00 | 0.00 | 44 | 5318.5 |
| 20260902030705 | 715 | 337 | 4.0 | 5.0 | 0.00 | 0.00 | 0.00 | 43 | 1799.3 |
| 20260902030503 | 354 | 337 | 5.0 | 6.0 | 0.00 | 0.00 | 0.00 | 44 | 403.3 |
| 20260902030301 | 129 | 292 | 6.0 | 6.0 | 0.00 | 0.00 | 0.00 | 44 | 5318.5 |
| 20260902025858 | 184 | 292 | 5.0 | 6.0 | 0.00 | 0.00 | 0.00 | 44 | 5318.5 |
| 20260902025655 | 145 | 292 | 5.0 | 6.0 | 0.00 | 0.00 | 0.00 | 43 | 5318.5 |
| 20260902025453 | 239 | 292 | 6.0 | 6.0 | 0.00 | 0.00 | 0.00 | 43 | 5318.5 |
| 20260902025251 | 201 | 292 | 5.0 | 6.0 | 0.00 | 0.00 | 0.00 | 43 | 5318.5 |
| 20260902025049 | 715 | 292 | 5.0 | 6.0 | 0.00 | 0.00 | 0.00 | 43 | 488.7 |
| 20260902024846 | 256 | 292 | 5.0 | 6.0 | 0.00 | 0.00 | 0.00 | 43 | 5318.5 |
| 20260902024646 | 715 | 292 | 4.0 | 5.0 | 0.00 | 0.00 | 0.00 | 43 | 1799.4 |
| 20260902024442 | 311 | 292 | 4.0 | 5.0 | 0.00 | 0.00 | 0.00 | 43 | 5318.5 |
| 20260902024241 | -24 | 292 | 4.0 | 5.0 | 0.00 | 0.00 | 0.00 | 43 | 5318.5 |
| 20260902024038 | -31 | 292 | 4.0 | 4.0 | 0.00 | 0.00 | 0.00 | 43 | 5318.5 |
| 20260902023836 | -19 | 315 | 1.0 | 3.0 | 0.00 | 0.00 | 0.00 | 43 | 567.2 |
| 20260902023634 | 715 | 315 | 2.0 | 4.0 | 0.00 | 0.00 | 0.00 | 43 | 1799.4 |
| 20260902023231 | -17 | 292 | 5.0 | 5.0 | 0.00 | 0.00 | 0.00 | 42 | 5318.5 |
| 20260902023029 | -84 | 292 | 5.0 | 5.0 | 0.00 | 0.00 | 0.00 | 43 | 5318.5 |
| 20260902022826 | 715 | 292 | 4.0 | 6.0 | 0.00 | 0.00 | 0.00 | 43 | 4420.8 |
| 20260902022624 | 715 | 292 | 6.0 | 6.0 | 0.00 | 0.00 | 0.00 | 42 | 4420.6 |
| 20260902022220 | 262 | 292 | 5.0 | 7.0 | 0.00 | 0.00 | 0.00 | 42 | 5318.5 |
| 20260902021820 | 814 | 292 | 2.0 | 4.0 | 0.00 | 0.00 | 0.00 | 42 | 5318.5 |
| 20260902021613 | 715 | 292 | 1.0 | 4.0 | 0.00 | 0.00 | 0.00 | 42 | 1799.4 |
| 20260902021411 | 136 | 292 | 3.0 | 4.0 | 0.00 | 0.00 | 0.00 | 42 | 5318.5 |
| 20260902021010 | 191 | 270 | 1.0 | 3.0 | 0.00 | 0.00 | 0.00 | 42 | 5318.5 |
| 20260902020805 | 715 | 315 | 0.0 | 4.0 | 0.00 | 0.00 | 0.00 | 42 | 488.7 |
| 20260902020604 | 247 | 292 | 3.0 | 4.0 | 0.00 | 0.00 | 0.00 | 42 | 5318.5 |
| 20260902020401 | -31 | 292 | 4.0 | 4.0 | 0.00 | 0.00 | 0.00 | 41 | 5318.5 |
| 20260902020159 | 302 | 292 | 3.0 | 4.0 | 0.00 | 0.00 | 0.00 | 41 | 5318.5 |
| 20260902015757 | -29 | 337 | 4.0 | 4.0 | 0.00 | 0.00 | 0.00 | 42 | 5318.5 |
| 20260902015553 | -20 | 337 | 3.0 | 3.0 | 0.00 | 0.00 | 0.00 | 42 | 5318.5 |
| 20260902015353 | -24 | 337 | 2.0 | 3.0 | 0.00 | 0.00 | 0.00 | 42 | 5318.5 |
| 20260902015150 | 32 | 292 | 2.0 | 3.0 | 0.00 | 0.00 | 0.00 | 42 | 5318.5 |
| 20260902014744 | -93 | 292 | 3.0 | 4.0 | 0.00 | 0.00 | 0.00 | 41 | 5318.5 |
| 20260902014542 | -13 | 292 | 3.0 | 3.0 | 0.00 | 0.00 | 0.00 | 42 | 5318.5 |
| 20260902014340 | -38 | 292 | 1.0 | 1.0 | 0.00 | 0.00 | 0.00 | 41 | 5318.5 |
| 20260902013330 | 166 | 292 | 2.0 | 4.0 | 0.00 | 0.00 | 0.00 | 41 | 5318.5 |
| 20260902012724 | 182 | 315 | 4.0 | 5.0 | 0.00 | 0.00 | 0.00 | 41 | 5318.5 |
| 20260902012158 | -32 | 337 | 4.0 | 5.0 | 0.00 | 0.00 | 0.00 | 41 | 5321.1 |
| 20260902012119 | -32 | 337 | 4.0 | 5.0 | 0.00 | 0.00 | 0.00 | 41 | 5321.1 |
| 20260902011919 | 293 | 337 | 5.0 | 5.0 | 0.00 | 0.00 | 0.00 | 40 | 5318.5 |
| 20260902011713 | -26 | 337 | 4.0 | 4.0 | 0.00 | 0.00 | 0.00 | 41 | 5318.5 |
| 20260902011513 | 715 | 337 | 2.0 | 3.0 | 0.00 | 0.00 | 0.00 | 41 | 1799.1 |
| 20260902011309 | -21 | 337 | 3.0 | 4.0 | 0.00 | 0.00 | 0.00 | 40 | 5318.5 |
| 20260902010703 | 715 | 292 | 4.0 | 4.0 | 0.00 | 0.00 | 0.00 | 41 | 4420.8 |
| 20260902010300 | 715 | 337 | 3.0 | 4.0 | 0.00 | 0.00 | 0.00 | 40 | 4420.6 |
| 20260902005855 | -86 | 292 | 4.0 | 5.0 | 0.00 | 0.00 | 0.00 | 40 | 5318.5 |
| 20260902005653 | 78 | 292 | 4.0 | 4.0 | 0.00 | 0.00 | 0.00 | 41 | 5318.5 |
| 20260902005451 | 715 | 292 | 3.0 | 4.0 | 0.00 | 0.00 | 0.00 | 40 | 4420.8 |
| 20260902005248 | 630 | 292 | 3.0 | 3.0 | 0.00 | 0.00 | 0.00 | 40 | 5318.5 |
| 20260902005047 | 157 | 292 | 1.0 | 5.0 | 0.00 | 0.00 | 0.00 | 40 | 5318.5 |
| 20260902004844 | 118 | 270 | 1.0 | 5.0 | 0.00 | 0.00 | 0.00 | 40 | 5318.5 |
| 20260902004440 | 715 | 337 | 3.0 | 3.0 | 0.00 | 0.00 | 0.00 | 40 | 1799.4 |
| 20260902004238 | 267 | 292 | 3.0 | 4.0 | 0.00 | 0.00 | 0.00 | 40 | 5318.5 |
| 20260902004037 | 228 | 292 | 3.0 | 4.0 | 0.00 | 0.00 | 0.00 | 39 | 5318.5 |
| 20260902003835 | 322 | 292 | 4.0 | 4.0 | 0.00 | 0.00 | 0.00 | 39 | 5318.5 |
| 20260902003632 | 715 | 337 | 3.0 | 3.0 | 0.00 | 0.00 | 0.00 | 40 | 4421.0 |
| 20260902003433 | -27 | 337 | 2.0 | 3.0 | 0.00 | 0.00 | 0.00 | 40 | 5318.5 |
| 20260902003232 | -31 | 337 | 2.0 | 2.0 | 0.00 | 0.00 | 0.00 | 40 | 5318.5 |
| 20260902003026 | 715 | 337 | 2.0 | 2.0 | 0.00 | 0.00 | 0.00 | 39 | 1799.4 |
| 20260902002826 | -26 | 337 | 1.0 | 2.0 | 0.00 | 0.00 | 0.00 | 39 | 5318.5 |
| 20260902002622 | -16 | 337 | 2.0 | 3.0 | 0.00 | 0.00 | 0.00 | 39 | 5318.5 |
| 20260902001813 | -56 | 337 | 2.0 | 4.0 | 0.00 | 0.00 | 0.00 | 39 | 5318.5 |
| 20260902001611 | -95 | 337 | 3.0 | 4.0 | 0.00 | 0.00 | 0.00 | 39 | 5318.5 |
| 20260902001409 | 32 | 337 | 4.0 | 4.0 | 0.00 | 0.00 | 0.00 | 39 | 5320.2 |
| 20260902001207 | 927 | 337 | 3.0 | 4.0 | 0.00 | 0.00 | 0.00 | 39 | 5318.5 |
| 20260902001019 | 538 | 337 | 3.0 | 4.0 | 0.00 | 0.00 | 0.00 | 39 | 5318.5 |
| 20260902000803 | 147 | 337 | 3.0 | 4.0 | 0.00 | 0.00 | 0.00 | 39 | 5318.5 |
| 20260902000505 | 203 | 337 | 3.0 | 4.0 | 0.00 | 0.00 | 0.00 | 39 | 5318.5 |
| 20260902000359 | 203 | 337 | 3.0 | 4.0 | 0.00 | 0.00 | 0.00 | 39 | 5318.5 |
| 20260901235348 | 274 | 337 | 3.0 | 3.0 | 0.00 | 0.00 | 0.00 | 39 | 5318.5 |
| 20260901234747 | -23 | 292 | 3.0 | 4.0 | 0.00 | 0.00 | 0.00 | 38 | 5318.5 |
| 20260901234540 | 715 | 337 | 3.0 | 3.0 | 0.00 | 0.00 | 0.00 | 38 | 4420.7 |
| 20260901234341 | -17 | 337 | 3.0 | 5.0 | 0.00 | 0.00 | 0.00 | 39 | 4010.3 |
| 20260901233935 | -12 | 292 | 3.0 | 5.0 | 0.00 | 0.00 | 0.00 | 38 | 5318.5 |
| 20260901233733 | -15 | 292 | 4.0 | 5.0 | 0.00 | 0.00 | 0.00 | 38 | 5318.5 |
| 20260901233530 | -65 | 292 | 4.0 | 4.0 | 0.00 | 0.00 | 0.00 | 38 | 5318.5 |
| 20260901233328 | 715 | 292 | 4.0 | 5.0 | 0.00 | 0.00 | 0.00 | 37 | 1799.4 |
| 20260901232520 | 138 | 337 | 3.0 | 3.0 | 0.00 | 0.00 | 0.00 | 38 | 5318.5 |
| 20260901232317 | 998 | 292 | 2.0 | 4.0 | 0.00 | 0.00 | 0.00 | 38 | 5318.5 |
| 20260901231914 | -31 | 292 | 4.0 | 4.0 | 0.00 | 0.00 | 0.00 | 38 | 5318.5 |
| 20260901231711 | 715 | 337 | 3.0 | 3.0 | 0.00 | 0.00 | 0.00 | 38 | 4420.8 |
| 20260901231307 | 304 | 292 | 3.0 | 4.0 | 0.00 | 0.00 | 0.00 | 37 | 5318.5 |
| 20260901231106 | 265 | 315 | 3.0 | 4.0 | 0.00 | 0.00 | 0.00 | 36 | 5318.5 |
| 20260901230904 | -29 | 292 | 4.0 | 5.0 | 0.00 | 0.00 | 0.00 | 37 | 5318.5 |
| 20260901230701 | 320 | 292 | 4.0 | 5.0 | 0.00 | 0.00 | 0.00 | 36 | 5318.5 |
| 20260901230257 | -27 | 337 | 3.0 | 4.0 | 0.00 | 0.00 | 0.00 | 37 | 5318.5 |
| 20260901225853 | -22 | 292 | 4.0 | 5.0 | 0.00 | 0.00 | 0.00 | 36 | 5318.5 |
| 20260901225448 | -16 | 315 | 4.0 | 4.0 | 0.00 | 0.00 | 0.00 | 36 | 5318.5 |
| 20260901225044 | -11 | 337 | 3.0 | 4.0 | 0.00 | 0.00 | 0.00 | 36 | 5318.5 |
| 20260901224843 | -19 | 315 | 3.0 | 4.0 | 0.00 | 0.00 | 0.00 | 36 | 5318.5 |
| 20260901224640 | 743 | 337 | 3.0 | 4.0 | 0.00 | 0.00 | 0.00 | 36 | 5318.5 |
| 20260901224442 | 354 | 225 | 3.0 | 3.0 | 0.00 | 0.00 | 0.00 | 36 | 5318.5 |
| 20260901224236 | 129 | 225 | 3.0 | 3.0 | 0.00 | 0.00 | 0.00 | 37 | 5318.5 |
| 20260901223428 | 715 | 315 | 0.0 | 0.0 | 0.00 | 0.00 | 0.00 | 37 | 1799.1 |
| 20260901223227 | 201 | 315 | 0.0 | 0.0 | 0.00 | 0.00 | 0.00 | 36 | 5318.5 |
| 20260901222822 | 715 | 315 | 0.0 | 1.0 | 0.00 | 0.00 | 0.00 | 36 | 1799.4 |
| 20260901222621 | 715 | 315 | 0.0 | 1.0 | 0.00 | 0.00 | 0.00 | 36 | 4420.6 |
| 20260901222215 | 715 | 315 | 1.0 | 1.0 | 0.00 | 0.00 | 0.00 | 36 | 4420.8 |
| 20260901222013 | -28 | 315 | 1.0 | 1.0 | 0.00 | 0.00 | 0.00 | 36 | 5318.5 |
| 20260901221812 | -19 | 315 | 1.0 | 1.0 | 0.00 | 0.00 | 0.00 | 36 | 5318.5 |
| 20260901221609 | -23 | 315 | 1.0 | 2.0 | 0.00 | 0.00 | 0.00 | 36 | 5318.5 |
| 20260901221003 | 715 | 315 | 2.0 | 3.0 | 0.00 | 0.00 | 0.00 | 35 | 1799.3 |
| 20260901220801 | -12 | 292 | 3.0 | 3.0 | 0.00 | 0.00 | 0.00 | 35 | 5318.5 |
| 20260901220600 | -31 | 315 | 1.0 | 2.0 | 0.00 | 0.00 | 0.00 | 35 | 5318.5 |
| 20260901220357 | -67 | 315 | 1.0 | 1.0 | 0.00 | 0.00 | 0.00 | 35 | 4010.3 |
| 20260901215549 | 715 | 292 | 1.0 | 2.0 | 0.00 | 0.00 | 0.00 | 35 | 1799.3 |
| 20260901215346 | 715 | 292 | 1.0 | 3.0 | 0.00 | 0.00 | 0.00 | 34 | 4420.8 |
| 20260901215219 | 230 | 292 | 2.0 | 3.0 | 0.00 | 0.00 | 0.00 | 34 | 5318.5 |
| 20260901215144 | 230 | 292 | 2.0 | 3.0 | 0.00 | 0.00 | 0.00 | 34 | 5318.5 |
| 20260901214942 | 191 | 292 | 3.0 | 3.0 | 0.00 | 0.00 | 0.00 | 34 | 5318.5 |
| 20260901214538 | 715 | 337 | 2.0 | 4.0 | 0.00 | 0.00 | 0.00 | 34 | 1799.4 |
| 20260901214336 | -31 | 292 | 3.0 | 4.0 | 0.00 | 0.00 | 0.00 | 34 | 5318.5 |
| 20260901214135 | 49 | 292 | 3.0 | 4.0 | 0.00 | 0.00 | 0.00 | 34 | 5318.5 |
| 20260901213731 | -29 | 292 | 4.0 | 5.0 | 0.00 | 0.00 | 0.00 | 33 | 5318.5 |
| 20260901213528 | -20 | 337 | 3.0 | 5.0 | 0.00 | 0.00 | 0.00 | 34 | 5318.5 |
| 20260901213126 | -14 | 337 | 5.0 | 6.0 | 0.00 | 0.00 | 0.00 | 33 | 5318.5 |
| 20260901212923 | -18 | 337 | 3.0 | 5.0 | 0.00 | 0.00 | 0.00 | 33 | 5318.5 |
| 20260901212720 | -93 | 337 | 4.0 | 5.0 | 0.00 | 0.00 | 0.00 | 33 | 5318.5 |
| 20260901212315 | -38 | 337 | 4.0 | 5.0 | 0.00 | 0.00 | 0.00 | 33 | 5318.5 |
| 20260901211912 | 170 | 337 | 3.0 | 4.0 | 0.00 | 0.00 | 0.00 | 34 | 5321.1 |
| 20260901211710 | 111 | 337 | 4.0 | 5.0 | 0.00 | 0.00 | 0.00 | 33 | 5318.5 |
| 20260901210904 | 221 | 337 | 1.0 | 4.0 | 0.00 | 0.00 | 0.00 | 33 | 5318.5 |
| 20260901210659 | 182 | 337 | 2.0 | 4.0 | 0.00 | 0.00 | 0.00 | 33 | 5318.5 |
| 20260901210254 | 715 | 315 | 4.0 | 5.0 | 0.00 | 0.00 | 0.00 | 33 | 1799.4 |
| 20260901205850 | -31 | 337 | 3.0 | 3.0 | 0.00 | 0.00 | 0.00 | 33 | 5318.5 |
| 20260901205649 | 715 | 337 | 3.0 | 3.0 | 0.00 | 0.00 | 0.00 | 32 | 1799.4 |
| 20260901205043 | -25 | 270 | 1.0 | 2.0 | 0.00 | 0.00 | 0.00 | 33 | 5318.5 |
| 20260901204843 | -15 | 292 | 1.0 | 3.0 | 0.00 | 0.00 | 0.00 | 32 | 5318.5 |
| 20260901204235 | -14 | 337 | 2.0 | 3.0 | 0.00 | 0.00 | 0.00 | 32 | 5318.5 |
| 20260901204032 | -47 | 337 | 3.0 | 3.0 | 0.00 | 0.00 | 0.00 | 32 | 5318.5 |
| 20260901203830 | -86 | 292 | 2.0 | 3.0 | 0.00 | 0.00 | 0.00 | 32 | 5318.5 |
| 20260901203629 | 78 | 292 | 2.0 | 3.0 | 0.00 | 0.00 | 0.00 | 32 | 5318.5 |
| 20260901203427 | 101 | 337 | 2.0 | 3.0 | 0.00 | 0.00 | 0.00 | 32 | 5318.5 |
| 20260901203223 | 630 | 337 | 2.0 | 3.0 | 0.00 | 0.00 | 0.00 | 31 | 5318.5 |
| 20260901203023 | 157 | 292 | 2.0 | 3.0 | 0.00 | 0.00 | 0.00 | 31 | 5318.5 |
| 20260901202415 | 715 | 292 | 3.0 | 3.0 | 0.00 | 0.00 | 0.00 | 31 | 1799.4 |
| 20260901202213 | 267 | 337 | 3.0 | 3.0 | 0.00 | 0.00 | 0.00 | 31 | 5318.5 |
| 20260901202011 | 715 | 337 | 2.0 | 3.0 | 0.00 | 0.00 | 0.00 | 31 | 4420.6 |
| 20260901201809 | 322 | 337 | 3.0 | 3.0 | 0.00 | 0.00 | 0.00 | 31 | 5318.5 |
| 20260901201203 | 715 | 337 | 3.0 | 3.0 | 0.00 | 0.00 | 0.00 | 31 | 1799.3 |
| 20260901200759 | -26 | 337 | 3.0 | 4.0 | 0.00 | 0.00 | 0.00 | 30 | 5318.5 |
| 20260901200349 | -22 | 337 | 3.0 | 4.0 | 0.00 | 0.00 | 0.00 | 31 | 5318.5 |
| 20260901200147 | 715 | 292 | 2.0 | 4.0 | 0.00 | 0.00 | 0.00 | 31 | 1799.3 |
| 20260901195542 | -11 | 292 | 3.0 | 4.0 | 0.00 | 0.00 | 0.00 | 31 | 5318.5 |
| 20260901195339 | -24 | 292 | 3.0 | 4.0 | 0.00 | 0.00 | 0.00 | 31 | 5320.2 |
| 20260901194532 | 860 | 337 | 4.0 | 4.0 | 0.00 | 0.00 | 0.00 | 29 | 5318.5 |
| 20260901194329 | 715 | 337 | 3.0 | 4.0 | 0.00 | 0.00 | 0.00 | 30 | 4480.2 |
| 20260901194128 | 141 | 337 | 4.0 | 4.0 | 0.00 | 0.00 | 0.00 | 29 | 5318.5 |
| 20260901193925 | 235 | 337 | 3.0 | 3.0 | 0.00 | 0.00 | 0.00 | 29 | 5318.5 |
| 20260901193723 | 196 | 292 | 2.0 | 2.0 | 0.00 | 0.00 | 0.00 | 29 | 5318.5 |
| 20260901193521 | 290 | 292 | 1.0 | 2.0 | 0.00 | 0.00 | 0.00 | 29 | 5318.5 |
| 20260901193318 | 251 | 292 | 1.0 | 2.0 | 0.00 | 0.00 | 0.00 | 29 | 5318.5 |
| 20260901192713 | 715 | 337 | 1.0 | 2.0 | 0.00 | 0.00 | 0.00 | 28 | 4420.8 |
| 20260901192511 | 715 | 337 | 1.0 | 2.0 | 0.00 | 0.00 | 0.00 | 28 | 1799.4 |
| 20260901192308 | -19 | 337 | 1.0 | 2.0 | 0.00 | 0.00 | 0.00 | 28 | 5318.5 |
| 20260901191702 | 715 | 337 | 2.0 | 2.0 | 0.00 | 0.00 | 0.00 | 27 | 1799.3 |
| 20260901191500 | 715 | 337 | 1.0 | 3.0 | 0.00 | 0.00 | 0.00 | 28 | 1799.4 |
| 20260901191258 | -12 | 315 | 2.0 | 3.0 | 0.00 | 0.00 | 0.00 | 28 | 5318.5 |
| 20260901190651 | 216 | 315 | 0.0 | 2.0 | 0.00 | 0.00 | 0.00 | 27 | 5318.5 |
| 20260901190247 | 768 | 315 | 2.0 | 3.0 | 0.00 | 0.00 | 0.00 | 26 | 5318.5 |
| 20260901190045 | 170 | 315 | 2.0 | 2.0 | 0.00 | 0.00 | 0.00 | 26 | 5318.5 |
| 20260901185843 | 715 | 315 | 1.0 | 2.0 | 0.00 | 0.00 | 0.00 | 26 | 4420.8 |
| 20260901185641 | 226 | 315 | 0.0 | 0.0 | 0.00 | 0.00 | 0.00 | 27 | 5318.5 |
| 20260901185440 | 187 | 315 | 0.0 | 0.0 | 0.00 | 0.00 | 0.00 | 26 | 5318.5 |
| 20260901185237 | 281 | 315 | 0.0 | 1.0 | 0.00 | 0.00 | 0.00 | 26 | 403.3 |
| 20260901185035 | 242 | 315 | 0.0 | 1.0 | 0.00 | 0.00 | 0.00 | 26 | 5318.5 |
| 20260901184833 | -31 | 270 | 0.0 | 1.0 | 0.00 | 0.00 | 0.00 | 25 | 5318.5 |
| 20260901184631 | 715 | 270 | 0.0 | 1.0 | 0.00 | 0.00 | 0.00 | 25 | 1799.4 |
| 20260901184232 | -30 | 270 | 1.0 | 2.0 | 0.00 | 0.00 | 0.00 | 25 | 5318.5 |
| 20260901184025 | -20 | 270 | 1.0 | 2.0 | 0.00 | 0.00 | 0.00 | 25 | 5318.5 |
| 20260901183823 | 715 | 270 | 1.0 | 3.0 | 0.00 | 0.00 | 0.00 | 25 | 1799.4 |
| 20260901183626 | -15 | 270 | 1.0 | 3.0 | 0.00 | 0.00 | 0.00 | 24 | 5318.5 |
| 20260901183419 | -19 | 270 | 2.0 | 3.0 | 0.00 | 0.00 | 0.00 | 24 | 5318.5 |
| 20260901183218 | -98 | 270 | 2.0 | 3.0 | 0.00 | 0.00 | 0.00 | 24 | 5318.5 |
| 20260901183014 | -13 | 270 | 3.0 | 3.0 | 0.00 | 0.00 | 0.00 | 24 | 5318.5 |
| 20260901182812 | -42 | 270 | 2.0 | 3.0 | 0.00 | 0.00 | 0.00 | 23 | 5318.5 |
| 20260901182610 | 715 | 270 | 2.0 | 6.0 | 0.00 | 0.00 | 0.00 | 23 | 4420.7 |
| 20260901182209 | 106 | 270 | 4.0 | 7.0 | 0.00 | 0.00 | 0.00 | 22 | 5318.5 |
| 20260901182004 | 715 | 315 | 4.0 | 10.0 | 0.00 | 0.00 | 0.00 | 21 | 1799.3 |
| 20260901181802 | 161 | 315 | 7.0 | 10.0 | 0.00 | 0.00 | 0.00 | 22 | 5318.5 |
| 20260901181600 | 122 | 315 | 8.0 | 8.0 | 0.00 | 0.00 | 0.00 | 23 | 5318.5 |
| 20260901181433 | 178 | 315 | 0.0 | 1.0 | 0.00 | 0.00 | 0.00 | 22 | 5318.5 |
| 20260901181156 | 178 | 315 | 0.0 | 1.0 | 0.00 | 0.00 | 0.00 | 22 | 5318.5 |
| 20260901180752 | 233 | 270 | 1.0 | 1.0 | 0.00 | 0.00 | 0.00 | 21 | 5318.5 |
| 20260901180549 | 715 | 270 | 1.0 | 1.0 | 0.00 | 0.00 | 0.00 | 21 | 1799.4 |
| 20260901180348 | 288 | 315 | 1.0 | 1.0 | 0.00 | 0.00 | 0.00 | 21 | 5318.5 |
| 20260901175540 | 32 | 270 | 1.0 | 1.0 | 0.00 | 0.00 | 0.00 | 20 | 5318.5 |
| 20260901175338 | -16 | 315 | 1.0 | 2.0 | 0.00 | 0.00 | 0.00 | 20 | 5318.5 |
| 20260901174935 | -10 | 270 | 1.0 | 2.0 | 0.00 | 0.00 | 0.00 | 20 | 5318.5 |
| 20260901174529 | -52 | 270 | 2.0 | 3.0 | 0.00 | 0.00 | 0.00 | 20 | 5318.5 |
| 20260901174327 | -90 | 270 | 2.0 | 3.0 | 0.00 | 0.00 | 0.00 | 20 | 5318.5 |
| 20260901173922 | 973 | 270 | 2.0 | 3.0 | 0.00 | 0.00 | 0.00 | 20 | 5318.5 |
| 20260901173720 | 584 | 270 | 2.0 | 3.0 | 0.00 | 0.00 | 0.00 | 19 | 5318.5 |
| 20260901173518 | 152 | 270 | 3.0 | 3.0 | 0.00 | 0.00 | 0.00 | 20 | 5318.5 |
| 20260901173317 | 113 | 270 | 2.0 | 3.0 | 0.00 | 0.00 | 0.00 | 20 | 5318.5 |
| 20260901172912 | 715 | 270 | 1.0 | 3.0 | 0.00 | 0.00 | 0.00 | 19 | 1799.3 |
| 20260901172710 | 49 | 270 | 3.0 | 4.0 | 0.00 | 0.00 | 0.00 | 18 | 5318.5 |
| 20260901172508 | 715 | 270 | 2.0 | 4.0 | 0.00 | 0.00 | 0.00 | 19 | 1799.4 |
| 20260901172307 | -31 | 270 | 4.0 | 4.0 | 0.00 | 0.00 | 0.00 | 18 | 5318.5 |
| 20260901171700 | 49 | 270 | 2.0 | 2.0 | 0.00 | 0.00 | 0.00 | 18 | 5318.5 |
| 20260901171458 | -22 | 270 | 1.0 | 2.0 | 0.00 | 0.00 | 0.00 | 18 | 5318.5 |
| 20260901171258 | -26 | 270 | 2.0 | 3.0 | 0.00 | 0.00 | 0.00 | 17 | 5318.5 |
| 20260901170854 | -21 | 270 | 2.0 | 3.0 | 0.00 | 0.00 | 0.00 | 17 | 5318.5 |
| 20260901170649 | -11 | 270 | 2.0 | 3.0 | 0.00 | 0.00 | 0.00 | 18 | 5318.5 |
| 20260901170246 | -31 | 270 | 3.0 | 3.0 | 0.00 | 0.00 | 0.00 | 17 | 5318.5 |
| 20260901170043 | -10 | 270 | 2.0 | 4.0 | 0.00 | 0.00 | 0.00 | 17 | 5318.5 |
| 20260901165639 | 881 | 270 | 1.0 | 4.0 | 0.00 | 0.00 | 0.00 | 17 | 5318.5 |
| 20260901165236 | 714 | 270 | 3.0 | 4.0 | 0.00 | 0.00 | 0.00 | 17 | 4420.7 |
| 20260901165033 | 104 | 270 | 2.0 | 3.0 | 0.00 | 0.00 | 0.00 | 17 | 5318.5 |
| 20260901164832 | 198 | 270 | 3.0 | 3.0 | 0.00 | 0.00 | 0.00 | 16 | 5318.5 |
| 20260901164629 | 159 | 270 | 2.0 | 6.0 | 0.00 | 0.00 | 0.00 | 16 | 5318.5 |
| 20260901164427 | 253 | 270 | 4.0 | 6.0 | 0.00 | 0.00 | 0.00 | 16 | 5318.5 |
| 20260901164027 | 308 | 270 | 2.0 | 4.0 | 0.00 | 0.00 | 0.00 | 16 | 5318.5 |
| 20260901163822 | 270 | 292 | 3.0 | 4.0 | 0.00 | 0.00 | 0.00 | 16 | 5318.5 |
| 20260901163619 | 715 | 315 | 1.0 | 7.0 | 0.00 | 0.00 | 0.00 | 14 | 1799.3 |
| 20260901163416 | -31 | 315 | 4.0 | 7.0 | 0.00 | 0.00 | 0.00 | 14 | 5318.5 |
| 20260901163215 | -23 | 315 | 5.0 | 7.0 | 0.00 | 0.00 | 0.00 | 14 | 5318.5 |
| 20260901163012 | -27 | 303 | 4.0 | 9.0 | 0.00 | 0.00 | 0.00 | 14 | 5318.5 |
| 20260901162608 | -21 | 315 | 10.0 | 10.0 | 0.00 | 0.00 | 0.00 | 14 | 5318.5 |
| 20260901161800 | 715 | 315 | 6.0 | 9.0 | 0.00 | 0.00 | 0.00 | 15 | 1799.4 |
| 20260901161357 | 789 | 270 | 5.0 | 11.0 | 0.00 | 0.00 | 0.00 | 15 | 5318.5 |
| 20260901161158 | 400 | 315 | 6.0 | 11.0 | 0.00 | 0.00 | 0.00 | 15 | 5318.5 |
| 20260901160750 | 715 | 315 | 5.0 | 8.0 | 0.00 | 0.00 | 0.00 | 16 | 1799.4 |
| 20260901160548 | 189 | 315 | 5.0 | 7.0 | 0.00 | 0.00 | 0.00 | 16 | 5318.5 |
| 20260901155941 | 715 | 315 | 4.0 | 9.0 | 0.00 | 0.00 | 0.00 | 16 | 4420.6 |
| 20260901155739 | 299 | 292 | 4.0 | 9.0 | 0.00 | 0.00 | 0.00 | 15 | 5318.5 |
| 20260901155538 | 260 | 315 | 5.0 | 5.0 | 0.00 | 0.00 | 0.00 | 16 | 5318.5 |
| 20260901155338 | -30 | 315 | 4.0 | 8.0 | 0.00 | 0.00 | 0.00 | 16 | 5318.5 |
| 20260901154527 | 715 | 315 | 7.0 | 7.0 | 0.00 | 0.00 | 0.00 | 15 | 1799.3 |
| 20260901154325 | -22 | 292 | 5.0 | 7.0 | 0.00 | 0.00 | 0.00 | 15 | 5318.5 |
| 20260901153920 | -17 | 315 | 9.0 | 11.0 | 0.00 | 0.00 | 0.00 | 16 | 5318.5 |
| 20260901153718 | 715 | 315 | 7.0 | 10.0 | 0.00 | 0.00 | 0.00 | 16 | 1799.3 |
| 20260901153314 | -24 | 292 | 3.0 | 9.0 | 0.00 | 0.00 | 0.00 | 15 | 5318.5 |
| 20260901152911 | 308 | 315 | 5.0 | 9.0 | 0.00 | 0.00 | 0.00 | 16 | 5318.5 |
| 20260901152708 | 124 | 292 | 8.0 | 9.0 | 0.00 | 0.00 | 0.00 | 16 | 5318.5 |
| 20260901152306 | 180 | 270 | 6.0 | 9.0 | 0.00 | 0.00 | 0.00 | 16 | 5318.5 |
| 20260901151658 | 196 | 315 | 7.0 | 11.0 | 0.00 | 0.00 | 0.00 | 17 | 5318.5 |
| 20260901151253 | 251 | 315 | 8.0 | 10.0 | 0.00 | 0.00 | 0.00 | 17 | 5318.5 |
| 20260901150644 | -26 | 315 | 3.0 | 5.0 | 0.00 | 0.00 | 0.00 | 18 | 5318.5 |
| 20260901150442 | -30 | 315 | 5.0 | 5.0 | 0.00 | 0.00 | 0.00 | 19 | 5318.5 |
| 20260901150240 | -21 | 315 | 1.0 | 3.0 | 0.00 | 0.00 | 0.00 | 20 | 5318.5 |
| 20260901150039 | -25 | 270 | 1.0 | 6.0 | 0.00 | 0.00 | 0.00 | 20 | 5318.5 |
| 20260901145635 | -19 | 270 | 2.0 | 7.0 | 0.00 | 0.00 | 0.00 | 20 | 5318.5 |
| 20260901145434 | -10 | 270 | 3.0 | 7.0 | 0.00 | 0.00 | 0.00 | 20 | 5318.5 |
| 20260901145230 | -14 | 270 | 3.0 | 6.0 | 0.00 | 0.00 | 0.00 | 20 | 5318.5 |
| 20260901145028 | -31 | 270 | 4.0 | 7.0 | 0.00 | 0.00 | 0.00 | 20 | 5318.5 |
| 20260901144826 | -86 | 315 | 5.0 | 7.0 | 0.00 | 0.00 | 0.00 | 20 | 5318.5 |
| 20260901144624 | 78 | 315 | 3.0 | 5.0 | 0.00 | 0.00 | 0.00 | 21 | 5318.5 |
| 20260901144424 | 101 | 315 | 4.0 | 9.0 | 0.00 | 0.00 | 0.00 | 21 | 5318.5 |
| 20260901144219 | 630 | 270 | 6.0 | 9.0 | 0.00 | 0.00 | 0.00 | 20 | 5318.5 |
| 20260901144018 | 157 | 315 | 9.0 | 9.0 | 0.00 | 0.00 | 0.00 | 21 | 5318.5 |
| 20260901143816 | 118 | 315 | 1.0 | 12.0 | 0.00 | 0.00 | 0.00 | 20 | 5318.5 |
| 20260901143232 | -29 | 315 | 5.0 | 10.0 | 0.00 | 0.00 | 0.00 | 21 | 5318.5 |
| 20260901142825 | -24 | 315 | 8.0 | 13.0 | 0.00 | 0.00 | 0.00 | 21 | 5318.5 |
| 20260901142623 | -27 | 315 | 10.0 | 13.0 | 0.00 | 0.00 | 0.00 | 21 | 5318.5 |
| 20260901142423 | -18 | 270 | 8.0 | 8.0 | 0.00 | 0.00 | 0.00 | 22 | 403.3 |
| 20260901142219 | -22 | 270 | 5.0 | 9.0 | 0.00 | 0.00 | 0.00 | 22 | 5318.5 |
| 20260901142017 | -13 | 315 | 9.0 | 12.0 | 0.00 | 0.00 | 0.00 | 22 | 5318.5 |
| 20260901141859 | 49 | 315 | 9.0 | 12.0 | 0.00 | 0.00 | 0.00 | 22 | 5318.5 |
| 20260901141815 | 49 | 315 | 9.0 | 12.0 | 0.00 | 0.00 | 0.00 | 22 | 5318.5 |
| 20260901141613 | -75 | 315 | 12.0 | 12.0 | 0.00 | 0.00 | 0.00 | 23 | 5318.5 |
| 20260901141413 | -11 | 270 | 6.0 | 7.0 | 0.00 | 0.00 | 0.00 | 23 | 5318.5 |
| 20260901141208 | 715 | 315 | 6.0 | 8.0 | 0.00 | 0.00 | 0.00 | 23 | 1799.1 |
| 20260901141010 | 714 | 315 | 5.0 | 8.0 | 0.00 | 0.00 | 0.00 | 23 | 4420.7 |
| 20260901140604 | 129 | 303 | 7.0 | 10.0 | 0.00 | 0.00 | 0.00 | 22 | 5318.5 |
| 20260901140400 | 906 | 270 | 6.0 | 10.0 | 0.00 | 0.00 | 0.00 | 22 | 5318.5 |
| 20260901140159 | 715 | 270 | 8.0 | 9.0 | 0.00 | 0.00 | 0.00 | 22 | 4420.6 |
| 20260901135956 | 32 | 270 | 9.0 | 12.0 | 0.00 | 0.00 | 0.00 | 22 | 5320.2 |
| 20260901135350 | 295 | 270 | 11.0 | 15.0 | 0.00 | 0.00 | 0.00 | 21 | 5318.5 |
| 20260901135148 | 715 | 270 | 12.0 | 15.0 | 0.00 | 0.00 | 0.00 | 22 | 4421.0 |
| 20260901134947 | -30 | 270 | 10.0 | 12.0 | 0.00 | 0.00 | 0.00 | 22 | 5318.5 |
| 20260901134745 | 715 | 270 | 7.0 | 11.0 | 0.00 | 0.00 | 0.00 | 22 | 1799.3 |
| 20260901134338 | -30 | 270 | 8.0 | 14.0 | 0.00 | 0.00 | 0.00 | 23 | 5318.5 |
| 20260901133734 | -15 | 315 | 12.0 | 12.0 | 0.00 | 0.00 | 0.00 | 22 | 5318.5 |
| 20260901133528 | -19 | 315 | 6.0 | 8.0 | 0.00 | 0.00 | 0.00 | 23 | 5318.5 |
| 20260901133326 | 715 | 315 | 7.0 | 8.0 | 0.00 | 0.00 | 0.00 | 22 | 1799.1 |
| 20260901132720 | -81 | 315 | 8.0 | 10.0 | 0.00 | 0.00 | 0.00 | 23 | 5318.5 |
| 20260901132518 | 124 | 315 | 8.0 | 9.0 | 0.00 | 0.00 | 0.00 | 22 | 5318.5 |
| 20260901132316 | 106 | 315 | 5.0 | 11.0 | 0.00 | 0.00 | 0.00 | 22 | 4010.3 |
| 20260901131912 | 161 | 270 | 9.0 | 9.0 | 0.00 | 0.00 | 0.00 | 23 | 5318.5 |
| 20260901131709 | 715 | 315 | 5.0 | 9.0 | 0.00 | 0.00 | 0.00 | 23 | 1799.4 |
| 20260901131507 | 216 | 292 | 6.0 | 10.0 | 0.00 | 0.00 | 0.00 | 23 | 5318.5 |
| 20260901131305 | 178 | 315 | 3.0 | 10.0 | 0.00 | 0.00 | 0.00 | 23 | 5318.5 |
| 20260901130654 | 715 | 315 | 10.0 | 10.0 | 0.00 | 0.00 | 0.00 | 24 | 1799.3 |
| 20260901130250 | -29 | 315 | 10.0 | 10.0 | 0.00 | 0.00 | 0.00 | 24 | 5318.5 |
| 20260901125644 | 715 | 315 | 10.0 | 10.0 | 0.00 | 0.00 | 0.00 | 25 | 1799.3 |
| 20260901125240 | -22 | 315 | 7.0 | 9.0 | 0.00 | 0.00 | 0.00 | 25 | 5318.5 |
| 20260901125039 | 715 | 315 | 6.0 | 9.0 | 0.00 | 0.00 | 0.00 | 25 | 4420.8 |
| 20260901124836 | 715 | 270 | 8.0 | 15.0 | 0.00 | 0.00 | 0.00 | 25 | 1799.4 |
| 20260901124636 | -75 | 315 | 14.0 | 15.0 | 0.00 | 0.00 | 0.00 | 25 | 5318.5 |
| 20260901124230 | -19 | 315 | 5.0 | 9.0 | 0.00 | 0.00 | 0.00 | 26 | 5318.5 |
| 20260901124027 | 49 | 315 | 6.0 | 8.0 | 0.00 | 0.00 | 0.00 | 25 | 5318.5 |
| 20260901123219 | 184 | 315 | 15.0 | 15.0 | 0.00 | 0.00 | 0.00 | 26 | 5318.5 |
| 20260901122653 | -27 | 315 | 8.0 | 11.0 | 0.00 | 0.00 | 0.00 | 27 | 5318.5 |
| 20260901122451 | -17 | 315 | 11.0 | 13.0 | 0.00 | 0.00 | 0.00 | 27 | 5318.5 |
| 20260901122249 | -21 | 292 | 11.0 | 13.0 | 0.00 | 0.00 | 0.00 | 27 | 5318.5 |
| 20260901122048 | -12 | 315 | 6.0 | 10.0 | 0.00 | 0.00 | 0.00 | 27 | 5318.5 |
| 20260901121845 | -15 | 292 | 9.0 | 15.0 | 0.00 | 0.00 | 0.00 | 27 | 5318.5 |
| 20260901121643 | -65 | 315 | 9.0 | 15.0 | 0.00 | 0.00 | 0.00 | 27 | 5318.5 |
| 20260901121318 | 173 | 303 | 7.0 | 10.0 | 0.00 | 0.00 | 0.00 | 27 | 403.3 |
| 20260901121116 | 267 | 315 | 8.0 | 9.0 | 0.00 | 0.00 | 0.00 | 28 | 403.3 |
| 20260901120712 | -31 | 315 | 8.0 | 9.0 | 0.00 | 0.00 | 0.00 | 28 | 5318.5 |
| 20260901120510 | 283 | 292 | 9.0 | 10.0 | 0.00 | 0.00 | 0.00 | 28 | 5318.5 |
| 20260901120308 | 715 | 315 | 5.0 | 15.0 | 0.00 | 0.00 | 0.00 | 28 | 4420.6 |
| 20260901115702 | -26 | 315 | 6.0 | 9.0 | 0.00 | 0.00 | 0.00 | 28 | 4010.3 |
| 20260901115500 | -31 | 315 | 4.0 | 9.0 | 0.00 | 0.00 | 0.00 | 28 | 5318.5 |
| 20260901115258 | -20 | 315 | 5.0 | 12.0 | 0.00 | 0.00 | 0.00 | 28 | 5318.5 |
| 20260901114854 | 715 | 303 | 8.0 | 13.0 | 0.00 | 0.00 | 0.00 | 28 | 4420.7 |
| 20260901114651 | -56 | 315 | 11.0 | 12.0 | 0.00 | 0.00 | 0.00 | 29 | 5318.5 |
| 20260901114449 | -95 | 315 | 5.0 | 15.0 | 0.00 | 0.00 | 0.00 | 28 | 5318.5 |
| 20260901114246 | 715 | 315 | 11.0 | 15.0 | 0.00 | 0.00 | 0.00 | 28 | 1799.4 |
| 20260901114048 | 927 | 315 | 15.0 | 15.0 | 0.00 | 0.00 | 0.00 | 29 | 5318.5 |
| 20260901113942 | -32 | 292 | 6.0 | 11.0 | 0.00 | 0.00 | 0.00 | 29 | 5318.5 |
| 20260901113741 | -23 | 292 | 9.0 | 11.0 | 0.00 | 0.00 | 0.00 | 30 | 5318.5 |
| 20260901113539 | -27 | 315 | 8.0 | 10.0 | 0.00 | 0.00 | 0.00 | 29 | 5318.5 |
| 20260901112936 | 715 | 337 | 9.0 | 11.0 | 0.00 | 0.00 | 0.00 | 30 | 4420.6 |
| 20260901112527 | -65 | 315 | 8.0 | 12.0 | 0.00 | 0.00 | 0.00 | 30 | 5318.5 |
| 20260901111720 | 446 | 315 | 8.0 | 10.0 | 0.00 | 0.00 | 0.00 | 30 | 5318.5 |
| 20260901111316 | 715 | 303 | 6.0 | 9.0 | 0.00 | 0.00 | 0.00 | 32 | 4420.6 |
| 20260901111114 | 193 | 315 | 8.0 | 12.0 | 0.00 | 0.00 | 0.00 | 31 | 5318.5 |
| 20260901110708 | 249 | 315 | 12.0 | 12.0 | 0.00 | 0.00 | 0.00 | 31 | 5318.5 |
| 20260901110507 | 210 | 315 | 4.0 | 12.0 | 0.00 | 0.00 | 0.00 | 31 | 5318.5 |
| 20260901110306 | 304 | 292 | 8.0 | 12.0 | 0.00 | 0.00 | 0.00 | 31 | 5318.5 |
| 20260901110107 | 265 | 315 | 5.0 | 12.0 | 0.00 | 0.00 | 0.00 | 30 | 5318.5 |
| 20260901105902 | -29 | 315 | 7.0 | 15.0 | 0.00 | 0.00 | 0.00 | 31 | 5318.5 |
| 20260901105658 | 320 | 315 | 6.0 | 15.0 | 0.00 | 0.00 | 0.00 | 31 | 5318.5 |
| 20260901105548 | -10 | 315 | 15.0 | 15.0 | 0.00 | 0.00 | 0.00 | 31 | 5318.5 |
| 20260901105405 | 175 | 315 | 6.0 | 12.0 | 0.00 | 0.00 | 0.00 | 31 | 5318.5 |
| 20260901105203 | 136 | 292 | 7.0 | 12.0 | 0.00 | 0.00 | 0.00 | 31 | 5318.5 |
| 20260901105001 | 49 | 315 | 8.0 | 10.0 | 0.00 | 0.00 | 0.00 | 32 | 5318.5 |
| 20260901104758 | 191 | 315 | 5.0 | 8.0 | 0.00 | 0.00 | 0.00 | 32 | 5318.5 |
| 20260901104558 | 285 | 292 | 8.0 | 10.0 | 0.00 | 0.00 | 0.00 | 32 | 5318.5 |
| 20260901104354 | 247 | 315 | 7.0 | 14.0 | 0.00 | 0.00 | 0.00 | 32 | 5318.5 |
| 20260901103950 | 302 | 292 | 11.0 | 12.0 | 0.00 | 0.00 | 0.00 | 32 | 5318.5 |
| 20260901103749 | -25 | 315 | 8.0 | 13.0 | 0.00 | 0.00 | 0.00 | 32 | 5318.5 |
| 20260901103547 | -29 | 315 | 4.0 | 13.0 | 0.00 | 0.00 | 0.00 | 32 | 403.4 |
| 20260901103146 | -24 | 292 | 10.0 | 12.0 | 0.00 | 0.00 | 0.00 | 32 | 5318.5 |
| 20260901102537 | 715 | 315 | 10.0 | 11.0 | 0.00 | 0.00 | 0.00 | 33 | 4420.9 |
| 20260901101728 | 170 | 303 | 6.0 | 9.0 | 0.00 | 0.00 | 0.00 | 33 | 5318.5 |
| 20260901101529 | 111 | 315 | 9.0 | 11.0 | 0.00 | 0.00 | 0.00 | 33 | 5318.5 |
| 20260901101326 | 722 | 303 | 8.0 | 11.0 | 0.00 | 0.00 | 0.00 | 33 | 5318.5 |
| 20260901100718 | 221 | 292 | 9.0 | 11.0 | 0.00 | 0.00 | 0.00 | 33 | 5318.5 |
| 20260901100516 | 182 | 315 | 5.0 | 11.0 | 0.00 | 0.00 | 0.00 | 33 | 5318.5 |